Voltar ao catálogo

SL-16 DEB

AtivoLEO
NORAD 22444·DEBRIS·🇷🇺 Russia

Lançado Dec 25, 1992 de Baikonur Cosmodrome

Loading…

Próximas Passagens (próximas 24 horas)

TLE

AtualizadoSource: Space-Track

Época: Sep 14, 2026, 12:41 UTC

1 22444U 92093EM  26257.52872132  .00000064  00000-0  61250-4 0  9999
2 22444  71.3187  86.8847 0076305 113.6779 278.2604 14.08336664724969

Acompanhe SL-16 DEB em tempo real com AllMySat

Download on the App Store